{"data":{"norad_id":67244,"intl_designator":"2025-311J","name":"HULIANWANG DIGUI-136","alt_names":[],"object_type":"PAYLOAD","status":"ACTIVE","operator":null,"country":"PRC","launch_date":"2025-12-25","launch_site_code":"WSC","launch_vehicle":null,"mission":null,"orbit_class":"UNKNOWN","rcs_meters":null,"size_class":null,"mass_kg":null,"dimensions":null,"purposes":[],"wikipedia_slug":null,"has_3d_model":false,"image_url":null,"decayed_at":null,"tle_current":{"epoch":"2026-05-24T21:32:51.586656Z","epoch_age_seconds":77715,"freshness":"FRESH","line1":"1 67244U 25311J   26144.89781929 -.00000093  00000+0  67189-4 0  9992","line2":"2 67244  50.0076 199.2241 0000929 245.3319 114.7456 13.29323410 20242","mean_motion":13.2932341,"eccentricity":9.29e-5,"inclination_deg":50.0076,"raan_deg":199.2241,"arg_perigee_deg":245.3319,"mean_anomaly_deg":114.7456,"bstar":6.7189e-5,"rev_number":2024,"period_min":108.32578356534,"perigee_km":1148.617048879,"apogee_km":1150.0156497113,"semimajor_km":7527.4533492951,"source":"CELESTRAK","updated_at":"2026-05-25T13:38:06.823614Z"}}}